Time,TemperatureF,DewpointF,PressureIn,WindDirection,WindDirectionDegrees,WindSpeedMPH,WindSpeedGustMPH,Humidity,HourlyPrecipIn,Conditions,Clouds,dailyrainin,SoftwareType,DateUTC
2013-05-09 00:01:00,59.0,35.0,26.93,NE,45,1.0,7.0,39,0.00,,,0.00,Rainwise IP-100,2013-05-09 06:01:00,
2013-05-09 00:06:00,59.0,33.0,26.93,ENE,67,5.0,8.0,38,0.00,,,0.00,Rainwise IP-100,2013-05-09 06:06:00,
2013-05-09 00:11:00,59.0,35.0,26.93,ESE,112,4.0,7.0,39,0.00,,,0.00,Rainwise IP-100,2013-05-09 06:11:00,
2013-05-09 00:16:00,59.0,35.0,26.93,East,90,6.0,8.0,39,0.00,,,0.00,Rainwise IP-100,2013-05-09 06:16:00,
2013-05-09 00:21:00,59.0,35.0,26.93,ESE,112,3.0,6.0,39,0.00,,,0.00,Rainwise IP-100,2013-05-09 06:21:00,
2013-05-09 00:26:00,59.0,35.0,26.93,ENE,67,1.0,6.0,39,0.00,,,0.00,Rainwise IP-100,2013-05-09 06:26:00,
2013-05-09 00:31:00,59.0,35.0,26.93,East,90,5.0,6.0,39,0.00,,,0.00,Rainwise IP-100,2013-05-09 06:31:00,
2013-05-09 00:36:00,59.0,35.0,26.93,East,90,3.0,6.0,39,0.00,,,0.00,Rainwise IP-100,2013-05-09 06:36:00,
2013-05-09 00:41:00,59.0,35.0,26.94,ENE,67,4.0,6.0,39,0.00,,,0.00,Rainwise IP-100,2013-05-09 06:41:00,
2013-05-09 00:46:00,59.0,35.0,26.94,NE,45,3.0,8.0,40,0.00,,,0.00,Rainwise IP-100,2013-05-09 06:46:00,
2013-05-09 00:51:00,58.0,35.0,26.94,East,90,1.0,6.0,41,0.00,,,0.00,Rainwise IP-100,2013-05-09 06:51:00,
2013-05-09 00:56:00,58.0,36.0,26.94,ESE,112,3.0,6.0,43,0.00,,,0.00,Rainwise IP-100,2013-05-09 06:56:00,
2013-05-09 01:01:00,58.0,37.0,26.95,ENE,67,2.0,6.0,44,0.00,,,0.00,Rainwise IP-100,2013-05-09 07:01:00,
2013-05-09 01:06:00,57.0,36.0,26.95,East,90,0.0,5.0,45,0.00,,,0.00,Rainwise IP-100,2013-05-09 07:06:00,
2013-05-09 01:11:00,57.0,37.0,26.95,SSE,157,1.0,3.0,46,0.00,,,0.00,Rainwise IP-100,2013-05-09 07:11:00,
2013-05-09 01:16:00,56.0,37.0,26.95,East,90,3.0,3.0,48,0.00,,,0.00,Rainwise IP-100,2013-05-09 07:16:00,
2013-05-09 01:21:00,56.0,37.0,26.97,SE,135,2.0,4.0,48,0.00,,,0.00,Rainwise IP-100,2013-05-09 07:21:00,
2013-05-09 01:26:00,55.0,37.0,26.97,SSW,202,0.0,4.0,49,0.00,,,0.00,Rainwise IP-100,2013-05-09 07:26:00,
2013-05-09 01:31:00,55.0,37.0,26.97,SE,135,6.0,6.0,51,0.00,,,0.00,Rainwise IP-100,2013-05-09 07:31:00,
2013-05-09 01:36:00,55.0,38.0,26.97,ENE,67,3.0,6.0,52,0.00,,,0.00,Rainwise IP-100,2013-05-09 07:36:00,
2013-05-09 01:41:00,55.0,38.0,26.97,SE,135,2.0,6.0,52,0.00,,,0.00,Rainwise IP-100,2013-05-09 07:41:00,
2013-05-09 01:46:00,55.0,38.0,26.97,East,90,1.0,3.0,53,0.00,,,0.00,Rainwise IP-100,2013-05-09 07:46:00,
2013-05-09 01:51:00,54.0,37.0,26.98,East,90,0.0,3.0,53,0.00,,,0.00,Rainwise IP-100,2013-05-09 07:51:00,
2013-05-09 01:56:00,54.0,38.0,26.98,East,90,0.0,0.0,54,0.00,,,0.00,Rainwise IP-100,2013-05-09 07:56:00,
2013-05-09 02:01:00,53.0,37.0,26.99,East,90,0.0,1.0,55,0.00,,,0.00,Rainwise IP-100,2013-05-09 08:01:00,
2013-05-09 02:06:00,53.0,37.0,26.99,East,90,0.0,2.0,55,0.00,,,0.00,Rainwise IP-100,2013-05-09 08:06:00,
2013-05-09 02:11:00,53.0,37.0,26.99,East,90,0.0,0.0,56,0.00,,,0.00,Rainwise IP-100,2013-05-09 08:11:00,
2013-05-09 02:16:00,52.0,38.0,26.99,East,90,0.0,0.0,58,0.00,,,0.00,Rainwise IP-100,2013-05-09 08:16:00,
2013-05-09 02:21:00,52.0,38.0,27.00,East,90,0.0,0.0,59,0.00,,,0.00,Rainwise IP-100,2013-05-09 08:21:00,
2013-05-09 02:26:00,51.0,37.0,27.00,East,90,0.0,0.0,58,0.00,,,0.00,Rainwise IP-100,2013-05-09 08:26:00,
2013-05-09 02:31:00,51.0,38.0,27.01,East,90,0.0,0.0,60,0.00,,,0.00,Rainwise IP-100,2013-05-09 08:31:00,
2013-05-09 02:36:00,51.0,38.0,27.01,East,90,0.0,0.0,60,0.00,,,0.00,Rainwise IP-100,2013-05-09 08:36:00,
2013-05-09 02:41:00,51.0,39.0,27.01,SE,135,2.0,2.0,63,0.00,,,0.00,Rainwise IP-100,2013-05-09 08:41:00,
2013-05-09 02:46:00,51.0,38.0,27.01,SE,135,0.0,3.0,61,0.00,,,0.00,Rainwise IP-100,2013-05-09 08:46:00,
2013-05-09 02:51:00,51.0,38.0,27.01,SE,135,0.0,0.0,61,0.00,,,0.00,Rainwise IP-100,2013-05-09 08:51:00,
2013-05-09 02:56:00,51.0,39.0,27.01,ESE,112,2.0,3.0,62,0.00,,,0.00,Rainwise IP-100,2013-05-09 08:56:00,
2013-05-09 03:01:00,51.0,39.0,27.01,ESE,112,0.0,3.0,62,0.00,,,0.00,Rainwise IP-100,2013-05-09 09:01:00,
2013-05-09 03:06:00,51.0,38.0,27.01,ESE,112,0.0,0.0,61,0.00,,,0.00,Rainwise IP-100,2013-05-09 09:06:00,
2013-05-09 03:11:00,51.0,39.0,27.01,ESE,112,0.0,0.0,62,0.00,,,0.00,Rainwise IP-100,2013-05-09 09:11:00,
2013-05-09 03:16:00,51.0,38.0,27.01,NW,315,2.0,5.0,61,0.00,,,0.00,Rainwise IP-100,2013-05-09 09:16:00,
2013-05-09 03:21:00,52.0,39.0,27.00,NW,315,0.0,6.0,61,0.00,,,0.00,Rainwise IP-100,2013-05-09 09:21:00,
2013-05-09 03:26:00,52.0,39.0,27.00,NW,315,0.0,0.0,61,0.00,,,0.00,Rainwise IP-100,2013-05-09 09:26:00,
2013-05-09 03:31:00,52.0,38.0,27.00,NW,315,0.0,0.0,60,0.00,,,0.00,Rainwise IP-100,2013-05-09 09:31:00,
2013-05-09 03:36:00,52.0,38.0,27.00,NE,45,0.0,4.0,59,0.00,,,0.00,Rainwise IP-100,2013-05-09 09:36:00,
2013-05-09 03:41:00,52.0,39.0,27.01,NE,45,0.0,1.0,61,0.00,,,0.00,Rainwise IP-100,2013-05-09 09:41:00,
2013-05-09 03:46:00,51.0,38.0,27.01,NE,45,0.0,0.0,61,0.00,,,0.00,Rainwise IP-100,2013-05-09 09:46:00,
2013-05-09 03:51:00,51.0,39.0,27.02,NE,45,0.0,0.0,62,0.00,,,0.00,Rainwise IP-100,2013-05-09 09:51:00,
2013-05-09 03:56:00,50.0,37.0,27.02,NE,45,0.0,0.0,62,0.00,,,0.00,Rainwise IP-100,2013-05-09 09:56:00,
2013-05-09 04:01:00,50.0,38.0,27.03,NE,45,0.0,0.0,63,0.00,,,0.00,Rainwise IP-100,2013-05-09 10:01:00,
2013-05-09 04:06:00,50.0,38.0,27.03,NE,45,0.0,0.0,64,0.00,,,0.00,Rainwise IP-100,2013-05-09 10:06:00,
2013-05-09 04:11:00,50.0,38.0,27.03,West,270,0.0,5.0,64,0.00,,,0.00,Rainwise IP-100,2013-05-09 10:11:00,
2013-05-09 04:16:00,49.0,38.0,27.03,West,270,0.0,1.0,65,0.00,,,0.00,Rainwise IP-100,2013-05-09 10:16:00,
2013-05-09 04:21:00,49.0,38.0,27.04,West,270,0.0,0.0,65,0.00,,,0.00,Rainwise IP-100,2013-05-09 10:21:00,
2013-05-09 04:26:00,48.0,38.0,27.04,West,270,0.0,0.0,67,0.00,,,0.00,Rainwise IP-100,2013-05-09 10:26:00,
2013-05-09 04:31:00,48.0,38.0,27.05,West,270,0.0,0.0,67,0.00,,,0.00,Rainwise IP-100,2013-05-09 10:31:00,
2013-05-09 04:36:00,48.0,39.0,27.05,West,270,0.0,0.0,70,0.00,,,0.00,Rainwise IP-100,2013-05-09 10:36:00,
2013-05-09 04:41:00,47.0,37.0,27.05,West,270,0.0,0.0,70,0.00,,,0.00,Rainwise IP-100,2013-05-09 10:41:00,
2013-05-09 04:46:00,47.0,38.0,27.05,West,270,2.0,2.0,71,0.00,,,0.00,Rainwise IP-100,2013-05-09 10:46:00,
2013-05-09 04:51:00,47.0,38.0,27.05,West,270,0.0,2.0,71,0.00,,,0.00,Rainwise IP-100,2013-05-09 10:51:00,
2013-05-09 04:56:00,47.0,38.0,27.05,West,270,0.0,2.0,71,0.00,,,0.00,Rainwise IP-100,2013-05-09 10:56:00,
2013-05-09 05:01:00,47.0,38.0,27.05,West,270,0.0,0.0,72,0.00,,,0.00,Rainwise IP-100,2013-05-09 11:01:00,
2013-05-09 05:06:00,46.0,37.0,27.05,West,270,0.0,0.0,72,0.00,,,0.00,Rainwise IP-100,2013-05-09 11:06:00,
2013-05-09 05:11:00,46.0,37.0,27.06,West,270,0.0,0.0,72,0.00,,,0.00,Rainwise IP-100,2013-05-09 11:11:00,
2013-05-09 05:16:00,46.0,38.0,27.06,West,270,0.0,0.0,75,0.00,,,0.00,Rainwise IP-100,2013-05-09 11:16:00,
2013-05-09 05:21:00,46.0,39.0,27.06,West,270,0.0,0.0,76,0.00,,,0.00,Rainwise IP-100,2013-05-09 11:21:00,
2013-05-09 05:26:00,46.0,38.0,27.06,West,270,0.0,0.0,74,0.00,,,0.00,Rainwise IP-100,2013-05-09 11:26:00,
2013-05-09 05:31:00,45.0,38.0,27.06,West,270,0.0,0.0,76,0.00,,,0.00,Rainwise IP-100,2013-05-09 11:31:00,
2013-05-09 05:36:00,45.0,38.0,27.06,West,270,0.0,0.0,76,0.00,,,0.00,Rainwise IP-100,2013-05-09 11:36:00,
2013-05-09 05:41:00,45.0,38.0,27.07,West,270,0.0,0.0,76,0.00,,,0.00,Rainwise IP-100,2013-05-09 11:41:00,
2013-05-09 05:46:00,44.0,38.0,27.07,West,270,0.0,0.0,79,0.00,,,0.00,Rainwise IP-100,2013-05-09 11:46:00,
2013-05-09 05:51:00,44.0,38.0,27.07,West,270,2.0,2.0,79,0.00,,,0.00,Rainwise IP-100,2013-05-09 11:51:00,
2013-05-09 05:56:00,45.0,38.0,27.07,West,270,0.0,3.0,78,0.00,,,0.00,Rainwise IP-100,2013-05-09 11:56:00,
2013-05-09 06:01:00,45.0,38.0,27.07,West,270,0.0,0.0,77,0.00,,,0.00,Rainwise IP-100,2013-05-09 12:01:00,
2013-05-09 06:06:00,45.0,38.0,27.07,SSW,202,2.0,3.0,77,0.00,,,0.00,Rainwise IP-100,2013-05-09 12:06:00,
2013-05-09 06:11:00,45.0,38.0,27.07,SSW,202,2.0,3.0,77,0.00,,,0.00,Rainwise IP-100,2013-05-09 12:11:00,
2013-05-09 06:16:00,45.0,38.0,27.07,SSW,202,1.0,3.0,77,0.00,,,0.00,Rainwise IP-100,2013-05-09 12:16:00,
2013-05-09 06:21:00,45.0,38.0,27.07,SSW,202,0.0,2.0,77,0.00,,,0.00,Rainwise IP-100,2013-05-09 12:21:00,
2013-05-09 06:26:00,45.0,38.0,27.07,SSW,202,0.0,2.0,77,0.00,,,0.00,Rainwise IP-100,2013-05-09 12:26:00,
2013-05-09 06:31:00,44.0,38.0,27.07,SSW,202,0.0,0.0,78,0.00,,,0.00,Rainwise IP-100,2013-05-09 12:31:00,
2013-05-09 06:36:00,44.0,38.0,27.07,SSW,202,0.0,0.0,79,0.00,,,0.00,Rainwise IP-100,2013-05-09 12:36:00,
2013-05-09 06:41:00,44.0,38.0,27.09,SSW,202,0.0,0.0,80,0.00,,,0.00,Rainwise IP-100,2013-05-09 12:41:00,
2013-05-09 06:46:00,44.0,38.0,27.09,SSW,202,0.0,0.0,80,0.00,,,0.00,Rainwise IP-100,2013-05-09 12:46:00,
2013-05-09 06:51:00,44.0,38.0,27.09,SSW,202,0.0,0.0,80,0.00,,,0.00,Rainwise IP-100,2013-05-09 12:51:00,
2013-05-09 06:56:00,45.0,39.0,27.09,SSW,202,0.0,0.0,79,0.00,,,0.00,Rainwise IP-100,2013-05-09 12:56:00,
2013-05-09 07:01:00,46.0,39.0,27.08,SSW,202,0.0,0.0,77,0.00,,,0.00,Rainwise IP-100,2013-05-09 13:01:00,
2013-05-09 07:06:00,47.0,39.0,27.08,SSW,202,0.0,0.0,75,0.00,,,0.00,Rainwise IP-100,2013-05-09 13:06:00,
2013-05-09 07:11:00,48.0,40.0,27.07,SSW,202,0.0,0.0,73,0.00,,,0.00,Rainwise IP-100,2013-05-09 13:11:00,
2013-05-09 07:16:00,49.0,40.0,27.07,SSW,202,0.0,0.0,70,0.00,,,0.00,Rainwise IP-100,2013-05-09 13:16:00,
2013-05-09 07:21:00,50.0,39.0,27.05,SSW,202,0.0,0.0,68,0.00,,,0.00,Rainwise IP-100,2013-05-09 13:21:00,
2013-05-09 07:26:00,51.0,40.0,27.05,SSW,202,0.0,0.0,66,0.00,,,0.00,Rainwise IP-100,2013-05-09 13:26:00,
2013-05-09 07:31:00,52.0,40.0,27.04,West,270,3.0,4.0,65,0.00,,,0.00,Rainwise IP-100,2013-05-09 13:31:00,
2013-05-09 07:36:00,52.0,40.0,27.04,West,270,2.0,4.0,65,0.00,,,0.00,Rainwise IP-100,2013-05-09 13:36:00,
2013-05-09 07:41:00,52.0,40.0,27.04,West,270,0.0,4.0,65,0.00,,,0.00,Rainwise IP-100,2013-05-09 13:41:00,
2013-05-09 07:46:00,53.0,40.0,27.04,West,270,0.0,1.0,62,0.00,,,0.00,Rainwise IP-100,2013-05-09 13:46:00,
2013-05-09 07:51:00,54.0,40.0,27.03,West,270,0.0,0.0,60,0.00,,,0.00,Rainwise IP-100,2013-05-09 13:51:00,
2013-05-09 07:56:00,55.0,41.0,27.03,South,180,0.0,3.0,59,0.00,,,0.00,Rainwise IP-100,2013-05-09 13:56:00,
2013-05-09 08:01:00,56.0,40.0,27.02,ENE,67,2.0,3.0,56,0.00,,,0.00,Rainwise IP-100,2013-05-09 14:01:00,
2013-05-09 08:06:00,56.0,41.0,27.02,ENE,67,0.0,4.0,57,0.00,,,0.00,Rainwise IP-100,2013-05-09 14:06:00,
2013-05-09 08:11:00,57.0,40.0,27.01,ESE,112,1.0,2.0,54,0.00,,,0.00,Rainwise IP-100,2013-05-09 14:11:00,
2013-05-09 08:16:00,57.0,40.0,27.01,East,90,4.0,4.0,53,0.00,,,0.00,Rainwise IP-100,2013-05-09 14:16:00,
2013-05-09 08:21:00,58.0,40.0,27.01,East,90,0.0,4.0,52,0.00,,,0.00,Rainwise IP-100,2013-05-09 14:21:00,
2013-05-09 08:26:00,59.0,41.0,27.01,North,360,4.0,7.0,51,0.00,,,0.00,Rainwise IP-100,2013-05-09 14:26:00,
2013-05-09 08:31:00,59.0,40.0,27.01,North,360,2.0,6.0,49,0.00,,,0.00,Rainwise IP-100,2013-05-09 14:31:00,
2013-05-09 08:36:00,60.0,41.0,27.01,North,360,2.0,6.0,50,0.00,,,0.00,Rainwise IP-100,2013-05-09 14:36:00,
2013-05-09 08:41:00,60.0,41.0,27.00,North,360,2.0,6.0,50,0.00,,,0.00,Rainwise IP-100,2013-05-09 14:41:00,
2013-05-09 08:46:00,60.0,40.0,27.00,West,270,3.0,5.0,49,0.00,,,0.00,Rainwise IP-100,2013-05-09 14:46:00,
2013-05-09 08:51:00,60.0,41.0,27.00,ESE,112,0.0,7.0,50,0.00,,,0.00,Rainwise IP-100,2013-05-09 14:51:00,
2013-05-09 08:56:00,60.0,41.0,27.00,South,180,2.0,6.0,50,0.00,,,0.00,Rainwise IP-100,2013-05-09 14:56:00,
2013-05-09 09:01:00,59.0,40.0,27.01,SSE,157,6.0,8.0,50,0.00,,,0.00,Rainwise IP-100,2013-05-09 15:01:00,
2013-05-09 09:06:00,59.0,40.0,27.01,WSW,247,6.0,7.0,50,0.00,,,0.00,Rainwise IP-100,2013-05-09 15:06:00,
2013-05-09 09:11:00,59.0,40.0,27.01,WSW,247,4.0,6.0,49,0.00,,,0.00,Rainwise IP-100,2013-05-09 15:11:00,
2013-05-09 09:16:00,60.0,42.0,27.01,WNW,292,3.0,6.0,51,0.00,,,0.00,Rainwise IP-100,2013-05-09 15:16:00,
2013-05-09 09:21:00,60.0,41.0,27.00,WNW,292,3.0,6.0,50,0.00,,,0.00,Rainwise IP-100,2013-05-09 15:21:00,
2013-05-09 09:26:00,60.0,41.0,27.00,NW,315,0.0,6.0,50,0.00,,,0.00,Rainwise IP-100,2013-05-09 15:26:00,
2013-05-09 09:31:00,60.0,41.0,27.01,WNW,292,6.0,6.0,50,0.00,,,0.00,Rainwise IP-100,2013-05-09 15:31:00,
2013-05-09 09:36:00,60.0,41.0,27.01,NW,315,6.0,7.0,50,0.00,,,0.00,Rainwise IP-100,2013-05-09 15:36:00,
2013-05-09 09:41:00,60.0,40.0,27.01,WNW,292,4.0,7.0,49,0.00,,,0.00,Rainwise IP-100,2013-05-09 15:41:00,
2013-05-09 09:46:00,61.0,40.0,27.01,NNW,337,5.0,6.0,47,0.00,,,0.00,Rainwise IP-100,2013-05-09 15:46:00,
2013-05-09 09:51:00,61.0,40.0,27.00,NNE,22,3.0,6.0,47,0.00,,,0.00,Rainwise IP-100,2013-05-09 15:51:00,
2013-05-09 09:56:00,61.0,40.0,27.00,NNW,337,4.0,4.0,47,0.00,,,0.00,Rainwise IP-100,2013-05-09 15:56:00,
2013-05-09 10:01:00,61.0,40.0,26.99,SE,135,0.0,6.0,47,0.00,,,0.00,Rainwise IP-100,2013-05-09 16:01:00,
2013-05-09 10:06:00,62.0,40.0,26.99,ENE,67,3.0,5.0,45,0.00,,,0.00,Rainwise IP-100,2013-05-09 16:06:00,
2013-05-09 10:11:00,62.0,40.0,26.99,NE,45,0.0,5.0,45,0.00,,,0.00,Rainwise IP-100,2013-05-09 16:11:00,
2013-05-09 10:16:00,63.0,41.0,26.99,NE,45,0.0,4.0,44,0.00,,,0.00,Rainwise IP-100,2013-05-09 16:16:00,
2013-05-09 10:21:00,64.0,41.0,26.97,ESE,112,4.0,4.0,43,0.00,,,0.00,Rainwise IP-100,2013-05-09 16:21:00,
2013-05-09 10:26:00,64.0,40.0,26.97,SE,135,3.0,7.0,42,0.00,,,0.00,Rainwise IP-100,2013-05-09 16:26:00,
2013-05-09 10:31:00,63.0,39.0,26.97,NE,45,4.0,7.0,42,0.00,,,0.00,Rainwise IP-100,2013-05-09 16:31:00,
2013-05-09 10:36:00,63.0,39.0,26.97,NE,45,2.0,7.0,42,0.00,,,0.00,Rainwise IP-100,2013-05-09 16:36:00,
2013-05-09 10:41:00,63.0,39.0,26.98,NE,45,6.0,6.0,42,0.00,,,0.00,Rainwise IP-100,2013-05-09 16:41:00,
2013-05-09 10:46:00,62.0,40.0,26.98,NE,45,5.0,7.0,44,0.00,,,0.00,Rainwise IP-100,2013-05-09 16:46:00,
2013-05-09 10:51:00,62.0,40.0,26.99,ENE,67,1.0,7.0,44,0.00,,,0.00,Rainwise IP-100,2013-05-09 16:51:00,
2013-05-09 10:56:00,61.0,39.0,26.99,ENE,67,3.0,6.0,44,0.00,,,0.00,Rainwise IP-100,2013-05-09 16:56:00,
2013-05-09 11:01:00,62.0,40.0,26.99,NE,45,3.0,6.0,45,0.00,,,0.00,Rainwise IP-100,2013-05-09 17:01:00,
2013-05-09 11:06:00,63.0,40.0,26.99,WNW,292,6.0,6.0,43,0.00,,,0.00,Rainwise IP-100,2013-05-09 17:06:00,
2013-05-09 11:11:00,64.0,40.0,26.97,SE,135,3.0,7.0,41,0.00,,,0.00,Rainwise IP-100,2013-05-09 17:11:00,
2013-05-09 11:16:00,65.0,40.0,26.97,East,90,4.0,6.0,40,0.00,,,0.00,Rainwise IP-100,2013-05-09 17:16:00,
2013-05-09 11:21:00,66.0,40.0,26.96,West,270,3.0,6.0,39,0.00,,,0.00,Rainwise IP-100,2013-05-09 17:21:00,
2013-05-09 11:26:00,67.0,41.0,26.96,East,90,0.0,6.0,39,0.00,,,0.00,Rainwise IP-100,2013-05-09 17:26:00,
2013-05-09 11:31:00,69.0,40.0,26.93,North,360,5.0,7.0,35,0.00,,,0.00,Rainwise IP-100,2013-05-09 17:31:00,
2013-05-09 11:36:00,69.0,40.0,26.93,ENE,67,0.0,8.0,35,0.00,,,0.00,Rainwise IP-100,2013-05-09 17:36:00,
2013-05-09 11:41:00,69.0,41.0,26.93,NE,45,4.0,6.0,36,0.00,,,0.00,Rainwise IP-100,2013-05-09 17:41:00,
2013-05-09 11:46:00,70.0,41.0,26.93,NNW,337,4.0,7.0,35,0.00,,,0.00,Rainwise IP-100,2013-05-09 17:46:00,
2013-05-09 11:51:00,71.0,40.0,26.92,NNE,22,5.0,7.0,33,0.00,,,0.00,Rainwise IP-100,2013-05-09 17:51:00,
2013-05-09 11:56:00,71.0,40.0,26.92,ENE,67,4.0,7.0,33,0.00,,,0.00,Rainwise IP-100,2013-05-09 17:56:00,
2013-05-09 12:01:00,71.0,40.0,26.92,East,90,6.0,7.0,33,0.00,,,0.00,Rainwise IP-100,2013-05-09 18:01:00,
2013-05-09 12:06:00,71.0,41.0,26.92,NE,45,0.0,7.0,34,0.00,,,0.00,Rainwise IP-100,2013-05-09 18:06:00,
2013-05-09 12:11:00,71.0,41.0,26.91,ESE,112,6.0,7.0,34,0.00,,,0.00,Rainwise IP-100,2013-05-09 18:11:00,
2013-05-09 12:16:00,71.0,41.0,26.91,SSE,157,6.0,6.0,34,0.00,,,0.00,Rainwise IP-100,2013-05-09 18:16:00,
2013-05-09 12:21:00,71.0,41.0,26.91,NE,45,5.0,7.0,34,0.00,,,0.00,Rainwise IP-100,2013-05-09 18:21:00,
2013-05-09 12:26:00,71.0,41.0,26.91,WSW,247,1.0,6.0,34,0.00,,,0.00,Rainwise IP-100,2013-05-09 18:26:00,
2013-05-09 12:31:00,73.0,43.0,26.90,NNE,22,2.0,8.0,34,0.00,,,0.00,Rainwise IP-100,2013-05-09 18:31:00,
2013-05-09 12:36:00,73.0,41.0,26.90,North,360,2.0,5.0,32,0.00,,,0.00,Rainwise IP-100,2013-05-09 18:36:00,
2013-05-09 12:41:00,73.0,41.0,26.90,West,270,7.0,8.0,32,0.00,,,0.00,Rainwise IP-100,2013-05-09 18:41:00,
2013-05-09 12:46:00,75.0,41.0,26.90,NNW,337,7.0,9.0,30,0.00,,,0.00,Rainwise IP-100,2013-05-09 18:46:00,
2013-05-09 12:51:00,75.0,41.0,26.88,North,360,1.0,10.0,30,0.00,,,0.00,Rainwise IP-100,2013-05-09 18:51:00,
2013-05-09 12:56:00,75.0,41.0,26.88,WNW,292,6.0,6.0,29,0.00,,,0.00,Rainwise IP-100,2013-05-09 18:56:00,
2013-05-09 13:01:00,75.0,41.0,26.87,WNW,292,5.0,8.0,29,0.00,,,0.00,Rainwise IP-100,2013-05-09 19:01:00,
2013-05-09 13:06:00,75.0,41.0,26.87,SSW,202,6.0,10.0,29,0.00,,,0.00,Rainwise IP-100,2013-05-09 19:06:00,
2013-05-09 13:11:00,77.0,40.0,26.87,South,180,1.0,6.0,27,0.00,,,0.00,Rainwise IP-100,2013-05-09 19:11:00,
2013-05-09 13:16:00,77.0,40.0,26.87,SSW,202,4.0,8.0,27,0.00,,,0.00,Rainwise IP-100,2013-05-09 19:16:00,
2013-05-09 13:21:00,77.0,40.0,26.85,SSE,157,7.0,8.0,27,0.00,,,0.00,Rainwise IP-100,2013-05-09 19:21:00,
2013-05-09 13:26:00,77.0,40.0,26.85,SSE,157,0.0,8.0,27,0.00,,,0.00,Rainwise IP-100,2013-05-09 19:26:00,
2013-05-09 13:31:00,77.0,40.0,26.85,SW,225,3.0,5.0,27,0.00,,,0.00,Rainwise IP-100,2013-05-09 19:31:00,
2013-05-09 13:36:00,78.0,40.0,26.85,North,360,3.0,7.0,26,0.00,,,0.00,Rainwise IP-100,2013-05-09 19:36:00,
2013-05-09 13:41:00,78.0,41.0,26.85,NNW,337,3.0,7.0,27,0.00,,,0.00,Rainwise IP-100,2013-05-09 19:41:00,
2013-05-09 13:46:00,78.0,40.0,26.85,SE,135,5.0,7.0,26,0.00,,,0.00,Rainwise IP-100,2013-05-09 19:46:00,
2013-05-09 13:51:00,79.0,40.0,26.83,SSE,157,6.0,6.0,25,0.00,,,0.00,Rainwise IP-100,2013-05-09 19:51:00,
2013-05-09 13:56:00,78.0,39.0,26.83,West,270,7.0,8.0,25,0.00,,,0.00,Rainwise IP-100,2013-05-09 19:56:00,
2013-05-09 14:01:00,78.0,39.0,26.84,West,270,9.0,11.0,25,0.00,,,0.00,Rainwise IP-100,2013-05-09 20:01:00,
2013-05-09 14:06:00,78.0,39.0,26.84,SE,135,6.0,9.0,25,0.00,,,0.00,Rainwise IP-100,2013-05-09 20:06:00,
2013-05-09 14:11:00,79.0,40.0,26.84,ENE,67,4.0,9.0,25,0.00,,,0.00,Rainwise IP-100,2013-05-09 20:11:00,
2013-05-09 14:16:00,78.0,39.0,26.84,NE,45,7.0,11.0,25,0.00,,,0.00,Rainwise IP-100,2013-05-09 20:16:00,
2013-05-09 14:21:00,78.0,39.0,26.84,NE,45,9.0,13.0,25,0.00,,,0.00,Rainwise IP-100,2013-05-09 20:21:00,
2013-05-09 14:26:00,78.0,40.0,26.84,NW,315,1.0,10.0,26,0.00,,,0.00,Rainwise IP-100,2013-05-09 20:26:00,
2013-05-09 14:31:00,80.0,40.0,26.82,WSW,247,1.0,9.0,24,0.00,,,0.00,Rainwise IP-100,2013-05-09 20:31:00,
2013-05-09 14:36:00,80.0,40.0,26.82,SSW,202,4.0,11.0,24,0.00,,,0.00,Rainwise IP-100,2013-05-09 20:36:00,
2013-05-09 14:41:00,80.0,40.0,26.82,West,270,5.0,7.0,24,0.00,,,0.00,Rainwise IP-100,2013-05-09 20:41:00,
2013-05-09 14:46:00,79.0,40.0,26.82,North,360,6.0,10.0,25,0.00,,,0.00,Rainwise IP-100,2013-05-09 20:46:00,
2013-05-09 14:51:00,80.0,39.0,26.82,NNE,22,1.0,7.0,23,0.00,,,0.00,Rainwise IP-100,2013-05-09 20:51:00,
2013-05-09 14:56:00,81.0,39.0,26.82,NNW,337,0.0,7.0,22,0.00,,,0.00,Rainwise IP-100,2013-05-09 20:56:00,
2013-05-09 15:01:00,81.0,37.0,26.81,ENE,67,2.0,10.0,21,0.00,,,0.00,Rainwise IP-100,2013-05-09 21:01:00,
2013-05-09 15:06:00,80.0,38.0,26.81,WNW,292,6.0,10.0,22,0.00,,,0.00,Rainwise IP-100,2013-05-09 21:06:00,
2013-05-09 15:11:00,79.0,38.0,26.81,NW,315,10.0,12.0,23,0.00,,,0.00,Rainwise IP-100,2013-05-09 21:11:00,
2013-05-09 15:16:00,80.0,40.0,26.81,NE,45,1.0,12.0,24,0.00,,,0.00,Rainwise IP-100,2013-05-09 21:16:00,
2013-05-09 15:21:00,81.0,40.0,26.80,WSW,247,3.0,9.0,23,0.00,,,0.00,Rainwise IP-100,2013-05-09 21:21:00,
2013-05-09 15:26:00,82.0,39.0,26.80,North,360,7.0,10.0,22,0.00,,,0.00,Rainwise IP-100,2013-05-09 21:26:00,
2013-05-09 15:31:00,82.0,35.0,26.79,NW,315,7.0,13.0,18,0.00,,,0.00,Rainwise IP-100,2013-05-09 21:31:00,
2013-05-09 15:36:00,82.0,36.0,26.79,ENE,67,4.0,10.0,19,0.00,,,0.00,Rainwise IP-100,2013-05-09 21:36:00,
2013-05-09 15:41:00,82.0,35.0,26.79,WSW,247,5.0,9.0,18,0.00,,,0.00,Rainwise IP-100,2013-05-09 21:41:00,
2013-05-09 15:46:00,81.0,35.0,26.79,NNW,337,10.0,10.0,19,0.00,,,0.00,Rainwise IP-100,2013-05-09 21:46:00,
2013-05-09 15:51:00,81.0,36.0,26.79,West,270,5.0,14.0,20,0.00,,,0.00,Rainwise IP-100,2013-05-09 21:51:00,
2013-05-09 15:56:00,81.0,36.0,26.79,WNW,292,8.0,10.0,20,0.00,,,0.00,Rainwise IP-100,2013-05-09 21:56:00,
2013-05-09 16:01:00,81.0,36.0,26.79,NNW,337,9.0,10.0,20,0.00,,,0.00,Rainwise IP-100,2013-05-09 22:01:00,
2013-05-09 16:06:00,81.0,35.0,26.79,WNW,292,3.0,14.0,19,0.00,,,0.00,Rainwise IP-100,2013-05-09 22:06:00,
2013-05-09 16:11:00,81.0,36.0,26.79,West,270,0.0,9.0,20,0.00,,,0.00,Rainwise IP-100,2013-05-09 22:11:00,
2013-05-09 16:16:00,82.0,37.0,26.79,WNW,292,9.0,9.0,20,0.00,,,0.00,Rainwise IP-100,2013-05-09 22:16:00,
2013-05-09 16:21:00,82.0,37.0,26.78,North,360,3.0,12.0,20,0.00,,,0.00,Rainwise IP-100,2013-05-09 22:21:00,
2013-05-09 16:26:00,79.0,36.0,26.78,WNW,292,4.0,10.0,21,0.00,,,0.00,Rainwise IP-100,2013-05-09 22:26:00,
2013-05-09 16:31:00,78.0,36.0,26.81,NNW,337,6.0,10.0,22,0.00,,,0.00,Rainwise IP-100,2013-05-09 22:31:00,
2013-05-09 16:36:00,77.0,38.0,26.81,SW,225,3.0,13.0,24,0.00,,,0.00,Rainwise IP-100,2013-05-09 22:36:00,
2013-05-09 16:41:00,77.0,38.0,26.82,NW,315,9.0,11.0,24,0.00,,,0.00,Rainwise IP-100,2013-05-09 22:41:00,
2013-05-09 16:46:00,77.0,39.0,26.82,WNW,292,6.0,9.0,25,0.00,,,0.00,Rainwise IP-100,2013-05-09 22:46:00,
2013-05-09 16:51:00,77.0,39.0,26.82,NW,315,4.0,14.0,25,0.00,,,0.00,Rainwise IP-100,2013-05-09 22:51:00,
2013-05-09 16:56:00,75.0,39.0,26.82,SW,225,9.0,14.0,27,0.00,,,0.00,Rainwise IP-100,2013-05-09 22:56:00,
2013-05-09 17:01:00,74.0,40.0,26.85,West,270,9.0,17.0,29,0.00,,,0.00,Rainwise IP-100,2013-05-09 23:01:00,
2013-05-09 17:06:00,73.0,40.0,26.85,SW,225,1.0,12.0,30,0.00,,,0.00,Rainwise IP-100,2013-05-09 23:06:00,
2013-05-09 17:11:00,73.0,40.0,26.85,West,270,2.0,5.0,30,0.00,,,0.00,Rainwise IP-100,2013-05-09 23:11:00,
2013-05-09 17:16:00,73.0,40.0,26.85,SW,225,3.0,6.0,31,0.00,,,0.00,Rainwise IP-100,2013-05-09 23:16:00,
2013-05-09 17:21:00,74.0,41.0,26.84,WSW,247,4.0,6.0,30,0.00,,,0.00,Rainwise IP-100,2013-05-09 23:21:00,
2013-05-09 17:26:00,73.0,42.0,26.84,SSW,202,6.0,12.0,33,0.00,,,0.00,Rainwise IP-100,2013-05-09 23:26:00,
2013-05-09 17:31:00,73.0,42.0,26.85,SW,225,3.0,9.0,33,0.00,,,0.00,Rainwise IP-100,2013-05-09 23:31:00,
2013-05-09 17:36:00,72.0,43.0,26.85,SE,135,2.0,10.0,35,0.00,,,0.00,Rainwise IP-100,2013-05-09 23:36:00,
2013-05-09 17:41:00,72.0,43.0,26.85,West,270,1.0,7.0,36,0.00,,,0.00,Rainwise IP-100,2013-05-09 23:41:00,
2013-05-09 17:46:00,72.0,43.0,26.85,South,180,8.0,9.0,36,0.00,,,0.00,Rainwise IP-100,2013-05-09 23:46:00,
2013-05-09 17:51:00,72.0,45.0,26.85,SSW,202,3.0,10.0,38,0.00,,,0.00,Rainwise IP-100,2013-05-09 23:51:00,
2013-05-09 17:56:00,72.0,46.0,26.85,SSW,202,0.0,6.0,39,0.00,,,0.00,Rainwise IP-100,2013-05-09 23:56:00,
2013-05-09 18:01:00,72.0,47.0,26.85,West,270,2.0,4.0,40,0.00,,,0.00,Rainwise IP-100,2013-05-10 00:01:00,
2013-05-09 18:06:00,71.0,47.0,26.85,SSW,202,2.0,3.0,42,0.00,,,0.00,Rainwise IP-100,2013-05-10 00:06:00,
2013-05-09 18:11:00,71.0,47.0,26.85,South,180,4.0,8.0,42,0.00,,,0.00,Rainwise IP-100,2013-05-10 00:11:00,
2013-05-09 18:16:00,71.0,47.0,26.85,South,180,1.0,7.0,42,0.00,,,0.00,Rainwise IP-100,2013-05-10 00:16:00,
2013-05-09 18:21:00,73.0,47.0,26.84,South,180,2.0,6.0,39,0.00,,,0.00,Rainwise IP-100,2013-05-10 00:21:00,
2013-05-09 18:26:00,74.0,47.0,26.84,SSW,202,3.0,6.0,38,0.00,,,0.00,Rainwise IP-100,2013-05-10 00:26:00,
2013-05-09 18:31:00,75.0,47.5,26.82,WSW,247,3.0,6.0,37,0.00,,,0.00,Rainwise IP-100,2013-05-10 00:31:00,
2013-05-09 18:36:00,76.0,45.0,26.82,SSE,157,6.0,7.0,33,0.00,,,0.00,Rainwise IP-100,2013-05-10 00:36:00,
2013-05-09 18:41:00,76.0,45.0,26.81,South,180,3.0,8.0,33,0.00,,,0.00,Rainwise IP-100,2013-05-10 00:41:00,
2013-05-09 18:46:00,77.0,46.0,26.81,SSW,202,5.0,6.0,33,0.00,,,0.00,Rainwise IP-100,2013-05-10 00:46:00,
2013-05-09 18:51:00,77.0,42.0,26.81,SW,225,1.0,9.0,29,0.00,,,0.00,Rainwise IP-100,2013-05-10 00:51:00,
2013-05-09 18:56:00,77.0,43.0,26.81,SW,225,2.0,7.0,30,0.00,,,0.00,Rainwise IP-100,2013-05-10 00:56:00,
2013-05-09 19:01:00,77.0,43.0,26.81,SW,225,5.0,6.0,30,0.00,,,0.00,Rainwise IP-100,2013-05-10 01:01:00,
2013-05-09 19:06:00,77.0,46.0,26.81,SW,225,2.0,10.0,33,0.00,,,0.00,Rainwise IP-100,2013-05-10 01:06:00,
2013-05-09 19:11:00,76.0,46.0,26.82,WSW,247,6.0,9.0,34,0.00,,,0.00,Rainwise IP-100,2013-05-10 01:11:00,
2013-05-09 19:16:00,75.0,47.5,26.82,South,180,4.0,8.0,37,0.00,,,0.00,Rainwise IP-100,2013-05-10 01:16:00,
2013-05-09 19:21:00,75.0,47.0,26.83,SSW,202,5.0,7.0,36,0.00,,,0.00,Rainwise IP-100,2013-05-10 01:21:00,
2013-05-09 19:26:00,74.0,46.0,26.83,WSW,247,1.0,7.0,37,0.00,,,0.00,Rainwise IP-100,2013-05-10 01:26:00,
2013-05-09 19:31:00,73.0,47.0,26.84,SSW,202,0.0,9.0,39,0.00,,,0.00,Rainwise IP-100,2013-05-10 01:31:00,
2013-05-09 19:36:00,73.0,47.0,26.84,South,180,2.0,6.0,39,0.00,,,0.00,Rainwise IP-100,2013-05-10 01:36:00,
2013-05-09 19:41:00,73.0,46.0,26.84,SW,225,3.0,6.0,38,0.00,,,0.00,Rainwise IP-100,2013-05-10 01:41:00,
2013-05-09 19:46:00,73.0,47.0,26.84,SW,225,2.0,6.0,39,0.00,,,0.00,Rainwise IP-100,2013-05-10 01:46:00,
2013-05-09 19:51:00,73.0,47.0,26.84,South,180,1.0,9.0,39,0.00,,,0.00,Rainwise IP-100,2013-05-10 01:51:00,
2013-05-09 19:56:00,72.0,46.0,26.84,SW,225,3.0,9.0,39,0.00,,,0.00,Rainwise IP-100,2013-05-10 01:56:00,
2013-05-09 20:01:00,72.0,46.0,26.85,South,180,5.0,7.0,39,0.00,,,0.00,Rainwise IP-100,2013-05-10 02:01:00,
2013-05-09 20:06:00,72.0,47.0,26.85,SSW,202,4.0,7.0,41,0.00,,,0.00,Rainwise IP-100,2013-05-10 02:06:00,
2013-05-09 20:11:00,72.0,46.0,26.85,SSE,157,5.0,7.0,39,0.00,,,0.00,Rainwise IP-100,2013-05-10 02:11:00,
2013-05-09 20:16:00,71.0,46.0,26.85,South,180,1.0,7.0,41,0.00,,,0.00,Rainwise IP-100,2013-05-10 02:16:00,
2013-05-09 20:21:00,71.0,46.0,26.86,South,180,6.0,8.0,41,0.00,,,0.00,Rainwise IP-100,2013-05-10 02:21:00,
2013-05-09 20:26:00,70.0,46.0,26.86,SSW,202,5.0,9.0,42,0.00,,,0.00,Rainwise IP-100,2013-05-10 02:26:00,
2013-05-09 20:31:00,70.0,47.0,26.87,South,180,5.0,8.0,43,0.00,,,0.00,Rainwise IP-100,2013-05-10 02:31:00,
2013-05-09 20:36:00,69.0,46.0,26.87,WSW,247,3.0,7.0,43,0.00,,,0.00,Rainwise IP-100,2013-05-10 02:36:00,
2013-05-09 20:41:00,69.0,46.0,26.87,SSE,157,6.0,6.0,43,0.00,,,0.00,Rainwise IP-100,2013-05-10 02:41:00,
2013-05-09 20:46:00,68.0,45.0,26.87,South,180,6.0,7.0,44,0.00,,,0.00,Rainwise IP-100,2013-05-10 02:46:00,
2013-05-09 20:51:00,68.0,45.0,26.88,SSW,202,3.0,8.0,44,0.00,,,0.00,Rainwise IP-100,2013-05-10 02:51:00,
2013-05-09 20:56:00,68.0,46.0,26.88,SSW,202,2.0,9.0,45,0.00,,,0.00,Rainwise IP-100,2013-05-10 02:56:00,
2013-05-09 21:01:00,68.0,46.0,26.89,South,180,4.0,10.0,45,0.00,,,0.00,Rainwise IP-100,2013-05-10 03:01:00,
2013-05-09 21:06:00,68.0,46.0,26.89,South,180,2.0,7.0,45,0.00,,,0.00,Rainwise IP-100,2013-05-10 03:06:00,
2013-05-09 21:11:00,68.0,45.0,26.89,SE,135,1.0,6.0,44,0.00,,,0.00,Rainwise IP-100,2013-05-10 03:11:00,
2013-05-09 21:16:00,67.0,44.0,26.89,ENE,67,0.0,3.0,44,0.00,,,0.00,Rainwise IP-100,2013-05-10 03:16:00,
2013-05-09 21:21:00,66.0,43.0,26.91,ENE,67,0.0,0.0,44,0.00,,,0.00,Rainwise IP-100,2013-05-10 03:21:00,
2013-05-09 21:26:00,65.0,44.0,26.91,ENE,67,0.0,0.0,46,0.00,,,0.00,Rainwise IP-100,2013-05-10 03:26:00,
2013-05-09 21:31:00,65.0,45.0,26.91,ENE,67,0.0,0.0,48,0.00,,,0.00,Rainwise IP-100,2013-05-10 03:31:00,
2013-05-09 21:36:00,64.0,44.0,26.91,ENE,67,0.0,0.0,49,0.00,,,0.00,Rainwise IP-100,2013-05-10 03:36:00,
2013-05-09 21:41:00,64.0,46.0,26.92,ENE,67,1.0,4.0,51,0.00,,,0.00,Rainwise IP-100,2013-05-10 03:41:00,
2013-05-09 21:46:00,64.0,46.0,26.92,ENE,67,0.0,3.0,51,0.00,,,0.00,Rainwise IP-100,2013-05-10 03:46:00,
2013-05-09 21:51:00,63.0,45.0,26.93,ENE,67,0.0,0.0,52,0.00,,,0.00,Rainwise IP-100,2013-05-10 03:51:00,
2013-05-09 21:56:00,63.0,46.0,26.93,ENE,67,0.0,0.0,54,0.00,,,0.00,Rainwise IP-100,2013-05-10 03:56:00,
2013-05-09 22:01:00,62.0,45.0,26.94,South,180,5.0,6.0,54,0.00,,,0.00,Rainwise IP-100,2013-05-10 04:01:00,
2013-05-09 22:06:00,62.0,45.0,26.94,SSE,157,4.0,6.0,54,0.00,,,0.00,Rainwise IP-100,2013-05-10 04:06:00,
2013-05-09 22:11:00,63.0,45.0,26.94,South,180,3.0,5.0,52,0.00,,,0.00,Rainwise IP-100,2013-05-10 04:11:00,
2013-05-09 22:16:00,62.0,44.0,26.94,ENE,67,1.0,4.0,52,0.00,,,0.00,Rainwise IP-100,2013-05-10 04:16:00,
2013-05-09 22:21:00,62.0,44.0,26.95,SE,135,0.0,2.0,52,0.00,,,0.00,Rainwise IP-100,2013-05-10 04:21:00,
2013-05-09 22:26:00,61.0,44.0,26.95,NNE,22,0.0,1.0,53,0.00,,,0.00,Rainwise IP-100,2013-05-10 04:26:00,
2013-05-09 22:31:00,61.0,45.0,26.95,NNW,337,0.0,0.0,55,0.00,,,0.00,Rainwise IP-100,2013-05-10 04:31:00,
2013-05-09 22:36:00,60.0,44.0,26.95,NNW,337,0.0,0.0,56,0.00,,,0.00,Rainwise IP-100,2013-05-10 04:36:00,
2013-05-09 22:41:00,60.0,44.0,26.96,ENE,67,0.0,3.0,55,0.00,,,0.00,Rainwise IP-100,2013-05-10 04:41:00,
2013-05-09 22:46:00,59.0,42.0,26.96,SSE,157,2.0,3.0,54,0.00,,,0.00,Rainwise IP-100,2013-05-10 04:46:00,
2013-05-09 22:51:00,60.0,43.0,26.96,ENE,67,5.0,5.0,54,0.00,,,0.00,Rainwise IP-100,2013-05-10 04:51:00,
2013-05-09 22:54:00,60.0,43.0,26.96,ENE,67,3.0,6.0,53,0.00,,,0.00,Rainwise IP-100,2013-05-10 04:54:00,
2013-05-09 22:55:00,60.0,43.0,26.96,ENE,67,2.0,6.0,53,0.00,,,0.00,Rainwise IP-100,2013-05-10 04:55:00,
2013-05-09 23:00:00,60.0,42.0,26.96,ESE,112,2.0,4.0,52,0.00,,,0.00,Rainwise IP-100,2013-05-10 05:00:00,
2013-05-09 23:05:00,60.0,43.0,26.96,SW,225,1.0,5.0,54,0.00,,,0.00,Rainwise IP-100,2013-05-10 05:05:00,
2013-05-09 23:10:00,59.0,42.0,26.96,South,180,3.0,5.0,53,0.00,,,0.00,Rainwise IP-100,2013-05-10 05:10:00,
2013-05-09 23:15:00,59.0,42.0,26.98,South,180,1.0,4.0,53,0.00,,,0.00,Rainwise IP-100,2013-05-10 05:15:00,
2013-05-09 23:20:00,59.0,42.0,26.98,SSW,202,2.0,5.0,53,0.00,,,0.00,Rainwise IP-100,2013-05-10 05:20:00,
2013-05-09 23:25:00,59.0,42.0,26.98,East,90,2.0,5.0,53,0.00,,,0.00,Rainwise IP-100,2013-05-10 05:25:00,
2013-05-09 23:30:00,59.0,42.0,26.98,ENE,67,2.0,5.0,53,0.00,,,0.00,Rainwise IP-100,2013-05-10 05:30:00,
2013-05-09 23:35:00,59.0,41.0,26.98,ENE,67,5.0,7.0,52,0.00,,,0.00,Rainwise IP-100,2013-05-10 05:35:00,
2013-05-09 23:40:00,59.0,41.0,26.98,NE,45,2.0,6.0,52,0.00,,,0.00,Rainwise IP-100,2013-05-10 05:40:00,
2013-05-09 23:45:00,59.0,41.0,26.98,East,90,3.0,7.0,52,0.00,,,0.00,Rainwise IP-100,2013-05-10 05:45:00,
2013-05-09 23:50:00,59.0,41.0,26.98,East,90,1.0,7.0,51,0.00,,,0.00,Rainwise IP-100,2013-05-10 05:50:00,
2013-05-09 23:55:00,59.0,41.0,26.98,ESE,112,2.0,6.0,52,0.00,,,0.00,Rainwise IP-100,2013-05-10 05:55:00,